Weather History for Philadelphia Wings Airport, PA

Change the Weather History Date:

Wednesday, April 30, 2014

  Actual Average (KPNE) Record (KPNE)
Temperature  
Mean Temperature 48 °F -  
Max Temperature 59 °F 67 °F 84 °F (2007)
Min Temperature 42 °F 45 °F 37 °F (2012)
Degree Days  
Heating Degree Days 16    
Moisture  
Dew Point 46 °F    
Average Humidity 91    
Maximum Humidity 94    
Minimum Humidity 87    
Precipitation  
Precipitation 2.55 in - - ()
Sea Level Pressure  
Sea Level Pressure 30.15 in    
Wind  
Wind Speed 13 mph (ENE)    
Max Wind Speed 20 mph    
Max Gust Speed 28 mph    
Visibility 3 miles    
Events      
Averages and records for this station are not official NWS values.
T = Trace of Precipitation, MM = Missing Value Source: NWS Daily Summary

Daily Weather History Graph

Daily Weather History Graph

Search for Another Location

Airport:

Trip Planner

Search our weather history database for the weather conditions in past years. The results will help you decide how hot, cold, wet, or windy it might be!

Date:

Astronomy

Apr. 30, 2014 Rise Set
Actual Time 6:02 AM EDT 7:55 PM EDT
Civil Twilight 5:32 AM EDT 8:24 PM EDT
Nautical Twilight 4:57 AM EDT 9:00 PM EDT
Astronomical Twilight 4:18 AM EDT 9:38 PM EDT
Moon 7:01 AM EDT (4/30) 9:31 PM EDT (4/30)
Length of Visible Light 14h 51m
Length of Day
13h 52m
New Moon, 2% of the Moon is Illuminated
Apr 30
New Moon
May 6
First Quarter
May 14
Full
May 21
Last Quarter
May 28
New

Hourly Weather History & Observations

Time (EDT) Temp. Windchill Dew Point Humidity Pressure Visibility Wind Dir Wind Speed Gust Speed Precip Events Conditions
12:15 AM 42.8 °F 34.8 °F 41.0 °F 93% 30.30 in 4.0 mi East 17.3 mph 23.0 mph 0.03 in   Overcast
12:35 AM 42.8 °F 34.8 °F 41.0 °F 93% 30.29 in 5.0 mi East 17.3 mph 23.0 mph 0.05 in   Overcast
12:55 AM 42.8 °F 36.2 °F 41.0 °F 93% 30.28 in 4.0 mi East 12.7 mph 24.2 mph 0.06 in   Overcast
1:15 AM 42.8 °F 35.1 °F 41.0 °F 93% 30.28 in 4.0 mi East 16.1 mph 21.9 mph 0.06 in   Overcast
1:35 AM 42.8 °F 36.6 °F 41.0 °F 93% 30.29 in 4.0 mi East 11.5 mph 19.6 mph 0.08 in   Overcast
1:55 AM 42.8 °F 36.6 °F 41.0 °F 93% 30.29 in 3.0 mi ENE 11.5 mph 26.5 mph 0.14 in   Overcast
2:15 AM 42.8 °F 38.0 °F 41.0 °F 93% 30.31 in 3.0 mi East 8.1 mph 11.5 mph 0.07 in   Overcast
2:35 AM 42.8 °F 35.8 °F 41.0 °F 93% 30.29 in 4.0 mi East 13.8 mph 19.6 mph 0.15 in   Overcast
2:55 AM 42.8 °F 35.1 °F 41.0 °F 93% 30.28 in 4.0 mi East 16.1 mph 21.9 mph 0.16 in   Overcast
3:15 AM 42.8 °F 35.1 °F 41.0 °F 93% 30.27 in 4.0 mi East 16.1 mph - N/A   Overcast
3:35 AM 42.8 °F 35.4 °F 41.0 °F 93% 30.26 in 4.0 mi East 15.0 mph 19.6 mph N/A   Overcast
3:55 AM 42.8 °F 36.6 °F 41.0 °F 93% 30.27 in 3.0 mi East 11.5 mph 18.4 mph 0.01 in   Overcast
4:15 AM 42.8 °F 35.8 °F 41.0 °F 93% 30.26 in 2.0 mi East 13.8 mph 19.6 mph 0.01 in   Overcast
4:35 AM 42.8 °F 37.0 °F 41.0 °F 93% 30.25 in 5.0 mi East 10.4 mph 18.4 mph 0.01 in   Overcast
4:55 AM 42.8 °F 35.4 °F 41.0 °F 93% 30.25 in 5.0 mi East 15.0 mph 23.0 mph 0.02 in   Overcast
5:15 AM 44.6 °F 38.1 °F 41.0 °F 87% 30.26 in 4.0 mi East 13.8 mph 18.4 mph N/A   Overcast
5:35 AM 44.6 °F 38.1 °F 41.0 °F 87% 30.24 in 2.0 mi ENE 13.8 mph 19.6 mph N/A   Overcast
5:55 AM 44.6 °F 37.8 °F 41.0 °F 87% 30.24 in 2.0 mi East 15.0 mph 21.9 mph N/A   Overcast
6:15 AM 44.6 °F 38.4 °F 41.0 °F 87% 30.26 in 2.5 mi East 12.7 mph 17.3 mph 0.03 in   Overcast
6:35 AM 44.6 °F 39.2 °F 41.0 °F 87% 30.26 in 5.0 mi ENE 10.4 mph 16.1 mph 0.03 in   Overcast
6:55 AM 44.6 °F 38.4 °F 42.8 °F 93% 30.25 in 1.5 mi East 12.7 mph 19.6 mph 0.04 in   Overcast
7:15 AM 44.6 °F 38.4 °F 42.8 °F 93% 30.26 in 1.2 mi ENE 12.7 mph 20.7 mph N/A   Overcast
7:35 AM 44.6 °F 37.8 °F 42.8 °F 93% 30.25 in 1.2 mi East 15.0 mph 20.7 mph N/A   Overcast
7:55 AM 44.6 °F 38.4 °F 42.8 °F 93% 30.25 in 1.5 mi East 12.7 mph 18.4 mph N/A   Overcast
8:15 AM 44.6 °F 38.8 °F 42.8 °F 93% 30.24 in 1.2 mi East 11.5 mph 17.3 mph 0.02 in   Overcast
8:35 AM 44.6 °F 38.4 °F 42.8 °F 93% 30.24 in 1.2 mi ENE 12.7 mph 19.6 mph 0.02 in   Overcast
8:55 AM 44.6 °F 37.8 °F 42.8 °F 93% 30.23 in 1.8 mi ENE 15.0 mph 23.0 mph 0.05 in   Overcast
9:15 AM 46.4 °F 41.1 °F 42.8 °F 87% 30.23 in 3.0 mi East 11.5 mph - 0.02 in   Overcast
9:35 AM 46.4 °F 41.1 °F 44.6 °F 93% 30.23 in 4.0 mi East 11.5 mph 19.6 mph 0.02 in   Overcast
9:55 AM 46.4 °F 39.8 °F 44.6 °F 93% 30.22 in 2.5 mi ENE 16.1 mph 19.6 mph 0.02 in   Overcast
10:15 AM 46.4 °F 41.1 °F 44.6 °F 93% 30.23 in 3.0 mi ENE 11.5 mph 18.4 mph 0.02 in   Overcast
10:35 AM 46.4 °F 41.1 °F 44.6 °F 93% 30.23 in 3.0 mi East 11.5 mph 16.1 mph 0.05 in   Overcast
10:55 AM 46.4 °F 40.4 °F 44.6 °F 93% 30.23 in 3.0 mi East 13.8 mph 18.4 mph 0.08 in   Overcast
11:15 AM 46.4 °F 40.4 °F 44.6 °F 93% 30.22 in 3.0 mi East 13.8 mph 21.9 mph 0.05 in   Overcast
11:35 AM 46.4 °F 40.1 °F 44.6 °F 93% 30.21 in 2.5 mi East 15.0 mph 24.2 mph 0.08 in   Overcast
11:55 AM 46.4 °F 39.5 °F 44.6 °F 93% 30.19 in 2.5 mi ENE 17.3 mph 23.0 mph 0.09 in   Overcast
12:15 PM 46.4 °F 39.8 °F 44.6 °F 93% 30.18 in 2.0 mi East 16.1 mph 27.6 mph N/A   Overcast
12:35 PM 46.4 °F 39.0 °F 44.6 °F 93% 30.16 in 1.5 mi East 19.6 mph 26.5 mph 0.05 in   Overcast
12:55 PM 48.2 °F - 44.6 °F 87% 30.16 in 1.8 mi East 13.8 mph 27.6 mph 0.09 in   Overcast
1:15 PM 48.2 °F - 44.6 °F 87% 30.15 in 1.2 mi East 12.7 mph 21.9 mph 0.10 in   Overcast
1:35 PM 50.0 °F - 46.4 °F 87% 30.16 in 3.0 mi East 10.4 mph - 0.12 in   Overcast
1:55 PM 50.0 °F - 46.4 °F 87% 30.14 in 3.0 mi East 15.0 mph 19.6 mph 0.17 in   Overcast
2:15 PM 50.0 °F - 46.4 °F 87% 30.15 in 2.0 mi ENE 10.4 mph 19.6 mph 0.07 in   Overcast
2:35 PM 50.0 °F - 46.4 °F 87% 30.13 in 1.2 mi ENE 15.0 mph 18.4 mph 0.22 in   Overcast
2:55 PM 50.0 °F - 46.4 °F 87% 30.12 in 3.0 mi ENE 13.8 mph 19.6 mph 0.26 in   Overcast
3:15 PM 50.0 °F - 46.4 °F 87% 30.10 in 4.0 mi ENE 17.3 mph - 0.02 in   Overcast
3:55 PM 50.0 °F - 46.4 °F 87% 30.06 in 1.8 mi ENE 16.1 mph 21.9 mph 0.12 in   Overcast
4:15 PM 50.0 °F - 46.4 °F 87% 30.08 in 2.0 mi NE 10.4 mph 17.3 mph 0.08 in   Overcast
4:35 PM 50.0 °F - 46.4 °F 87% 30.07 in 1.5 mi ENE 12.7 mph 18.4 mph 0.23 in   Overcast
4:55 PM 50.0 °F - 48.2 °F 94% 30.06 in 1.2 mi ENE 15.0 mph 19.6 mph 0.43 in   Overcast
5:15 PM 50.0 °F - 48.2 °F 94% 30.07 in 2.5 mi ENE 13.8 mph - 0.05 in   Overcast
5:35 PM 51.8 °F - 48.2 °F 88% 30.05 in 0.8 mi East 12.7 mph - 0.22 in   Overcast
5:55 PM 51.8 °F - 50.0 °F 94% 30.02 in 2.0 mi East 15.0 mph 23.0 mph 0.29 in   Overcast
6:15 PM 53.6 °F - 51.8 °F 94% 30.01 in 2.5 mi East 18.4 mph 24.2 mph 0.04 in   Overcast
6:35 PM 53.6 °F - 50.0 °F 88% 30.00 in 5.0 mi ENE 16.1 mph 26.5 mph 0.06 in   Overcast
6:55 PM 51.8 °F - 50.0 °F 94% 30.00 in 4.0 mi ENE 13.8 mph 19.6 mph 0.07 in   Overcast
7:15 PM 51.8 °F - 50.0 °F 94% 30.00 in 10.0 mi East 11.5 mph - 0.01 in   Overcast
7:35 PM 53.6 °F - 50.0 °F 88% 30.02 in 5.0 mi ENE 4.6 mph - 0.07 in   Overcast
7:55 PM 53.6 °F - 50.0 °F 88% 29.99 in 4.0 mi East 11.5 mph - 0.14 in   Overcast
8:15 PM 53.6 °F - 50.0 °F 88% 29.97 in 7.0 mi ENE 11.5 mph - 0.01 in   Overcast
8:35 PM 53.6 °F - 51.8 °F 94% 29.98 in 5.0 mi East 6.9 mph - 0.03 in   Overcast
8:55 PM 53.6 °F - 51.8 °F 94% 29.98 in 4.0 mi ENE 4.6 mph - 0.05 in   Overcast
9:15 PM 53.6 °F - 51.8 °F 94% 29.98 in 3.0 mi ENE 4.6 mph - 0.04 in   Overcast
9:35 PM 53.6 °F - 51.8 °F 94% 29.97 in 7.0 mi ENE 4.6 mph - 0.06 in   Overcast
10:15 PM 55.4 °F - 51.8 °F 88% 29.95 in 5.0 mi NE 5.8 mph - 0.01 in   Overcast
10:35 PM 55.4 °F - 53.6 °F 94% 29.94 in 3.0 mi ENE 6.9 mph - 0.04 in   Overcast
10:55 PM 55.4 °F - 53.6 °F 94% 29.92 in 4.0 mi East 6.9 mph - 0.08 in   Overcast
11:15 PM 55.4 °F - 53.6 °F 94% 29.91 in 5.0 mi East 5.8 mph - 0.12 in   Overcast
11:35 PM 55.4 °F - 53.6 °F 94% 29.89 in 5.0 mi East 5.8 mph - 0.12 in   Overcast
11:55 PM 59.0 °F - 55.4 °F 88% 29.88 in 4.0 mi East 5.8 mph - 0.12 in   Overcast